EW4049 Weather Reports


Display with metric or nautical units.
time (UTC)temp
F
wind
direction
speed
MPH
gust
MPH
rain 1hr
in
rain 24hr
in
rain mn
in
humidity
%
barometer
mb
20260505051522 37 18 0.0 0.0 0.01 0.31 0.26 90 1006.5
20260505041518 38 129 0.0 1.0 0.05 0.30 0.25 89 1006.7
20260505040011 38 130 0.0 2.0 0.12 0.30 0.25 89 1006.8
20260505034516 38 91 0.0 4.0 0.21 0.30 0.25 89 1006.3
20260505033022 38 125 2.0 7.0 0.22 0.28 0.24 88 1005.8
20260505031533 39 140 6.0 12.0 0.18 0.25 0.20 86 1006.3
20260505030007 40 213 3.0 6.0 0.10 0.17 0.12 84 1006.3
20260505024519 41 229 0.0 4.0 0.02 0.09 0.04 82 1005.7
20260505023009 42 207 0.0 7.0 0.00 0.07 0.02 80 1005.3
20260505021513 41 198 1.0 5.0 0.00 0.07 0.02 79 1004.8
20260505020003 42 143 0.0 4.0 0.00 0.07 0.02 79 1004.5
20260505014609 42 116 0.0 2.0 0.00 0.07 0.02 78 1004.4
20260505013052 43 111 0.0 8.0 0.00 0.07 0.02 77 1004.3
20260505011538 43 117 0.0 9.0 0.00 0.07 0.02 75 1004.3
20260505010042 43 155 0.0 4.0 0.01 0.07 0.02 75 1004.2
20260505004546 43 174 0.0 2.0 0.02 0.07 0.02 76 1004.0
20260505003029 43 173 0.0 10.0 0.02 0.07 0.02 77 1004.1
20260505001532 43 224 4.0 10.0 0.02 0.07 0.02 75 1004.3
20260505000039 43 190 4.0 11.0 0.01 0.06 0.01 71 1004.7
20260504234518 46 138 0.0 2.0 0.00 0.05 0.00 62 1004.6
20260504233021 46 56 0.0 3.0 0.00 0.05 0.00 60 1004.3
20260504231516 46 175 0.0 3.0 0.00 0.05 0.00 62 1003.8
20260504230019 47 279 0.0 12.0 0.00 0.05 0.00 62 1003.7
20260504224523 47 309 2.0 12.0 0.01 0.05 0.00 59 1003.3
20260504223014 47 123 5.0 15.0 0.05 0.05 0.00 57 1003.2
20260504221510 47 32 3.0 16.0 0.05 0.05 0.00 59 1003.0
20260504220014 48 138 1.0 13.0 0.05 0.05 0.00 64 1002.4
20260504214502 47 219 1.0 14.0 0.04 0.04 0.04 67 1002.3
20260504213105 56 262 1.0 6.0 0.00 0.00 0.00 50 1002.0
20260504211551 56 88 1.0 6.0 0.00 0.00 0.00 36 1001.9
20260504210047 59 288 2.0 13.0 0.00 0.00 0.00 33 1001.9
20260504204539 59 104 5.0 12.0 0.00 0.00 0.00 34 1002.2
20260504203041 59 348 4.0 10.0 0.00 0.00 0.00 37 1002.6
20260504201535 58 132 0.0 6.0 0.00 0.00 0.00 38 1003.0
20260504200038 56 42 1.0 10.0 0.00 0.00 0.00 41 1003.3
20260504194542 50 77 1.0 8.0 0.00 0.00 0.00 53 1003.7
20260504193036 50 286 4.0 11.0 0.00 0.00 0.00 48 1004.6
20260504191542 53 13 1.0 8.0 0.00 0.00 0.00 45 1003.9
20260504190036 55 244 3.0 10.0 0.00 0.00 0.00 38 1003.4
20260504184530 57 86 7.0 11.0 0.00 0.00 0.00 35 1003.2
20260504183033 54 284 0.0 4.0 0.00 0.00 0.00 38 1003.4
20260504181531 55 291 4.0 16.0 0.00 0.00 0.00 41 1003.4
20260504180018 56 61 5.0 13.0 0.00 0.00 0.00 34 1003.5
20260504174522 57 97 1.0 8.0 0.00 0.00 0.00 34 1003.5
20260504173017 59 32 3.0 10.0 0.00 0.00 0.00 33 1003.6
20260504171508 60 76 2.0 12.0 0.00 0.00 0.00 30 1004.1
20260504081538 37 264 0.0 3.0 0.00 0.00 0.00 55 1005.7